Hourly Data Report for November 06, 2017

SHEARWATER RCS
NOVA SCOTIA

44°37'47.000" N
63°30'48.000" W
24.00 m
8205092
71264
AAW

Download Data

Hourly Data (November 2017)
Hourly Data Report for November 6, 2017
TIME
LST
Temp Definition
°C
Dew Point Definition
°C
Rel Hum Definition
%
Precip. Amount Definition
mm

Wind Dir Definition
10's deg

Wind Spd Definition
km/h
Visibility Definition
km
Stn Press Definition
kPa
Hmdx Definition


Wind Chill Definition


Weather Definition


00:00 12.6 9.0 79 0.0 15 28   102.49     LegendNANA
01:00 12.8 9.8 82 0.0 15 24   102.42     LegendNANA
02:00 13.0 10.7 86 0.0 14 12   102.34     LegendNANA
03:00 13.8 10.8 82 0.0 15 19   102.18     LegendNANA
04:00 14.1 11.5 85 0.0 16 25   102.03     LegendNANA
05:00 14.1 12.0 87 0.0 16 24   101.93     LegendNANA
06:00 14.5 12.5 88 0.0 16 23   101.82     LegendNANA
07:00 14.8 12.9 88 0.0 16 27   101.73     LegendNANA
08:00 15.0 13.3 90 0.0 17 28   101.68     LegendNANA
09:00 15.7 13.8 88 0.0 17 34   101.56     LegendNANA
10:00 15.8 13.9 89 0.0 17 36   101.45     LegendNANA
11:00 15.6 14.0 90 0.0 17 35   101.35     LegendNANA
12:00 16.5 15.1 91 1.9 18 27   101.27     LegendNANA
13:00 16.6 14.9 90 0.0 18 29   101.14     LegendNANA
14:00 16.7 15.3 91 0.0 18 27   101.07     LegendNANA
15:00 17.4 16.1 92 0.3 19 32   101.05     LegendNANA
16:00 17.2 16.0 92 0.0 20 30   101.01     LegendNANA
17:00 17.1 16.0 93 0.0 21 30   100.96     LegendNANA
18:00 16.6 15.4 93 0.0 21 24   100.92     LegendNANA
19:00 15.7 14.6 93 0.0 21 19   100.91     LegendNANA
20:00 15.2 14.2 94 0.0 21 17   100.88     LegendNANA
21:00 15.2 14.1 93 0.0 19 13   100.81     LegendNANA
22:00 15.1 14.1 94 0.0 18 11   100.76     LegendNANA
23:00 15.4 14.4 94 0.0 20 14   100.65     LegendNANA

Notes on Data Quality.

Legend

  • E = Estimated
  • M = Missing
  • NA = Not Available*
  • [empty] = Indicates an unobserved value
Date modified: